Time,TemperatureF,DewpointF,PressureIn,WindDirection,WindDirectionDegrees,WindSpeedMPH,WindSpeedGustMPH,Humidity,HourlyPrecipIn,Conditions,Clouds,dailyrainin,SoftwareType,DateUTC
2013-02-12 00:07:00,62.4,60.0,29.75,West,281,3.0,12.0,91,0.00,,,0.00,weatherlink.com 1.10,2013-02-12 05:07:00,
2013-02-12 00:22:00,62.4,60.0,29.76,West,273,4.0,9.0,91,0.00,,,0.00,weatherlink.com 1.10,2013-02-12 05:22:00,
2013-02-12 00:37:00,62.4,59.0,29.75,WNW,290,11.0,14.0,89,0.00,,,0.00,weatherlink.com 1.10,2013-02-12 05:37:00,
2013-02-12 00:53:00,62.4,59.0,29.75,West,278,4.0,13.0,89,0.00,,,0.00,weatherlink.com 1.10,2013-02-12 05:53:00,
2013-02-12 01:08:00,62.4,59.0,29.75,West,273,5.0,12.0,88,0.00,,,0.00,weatherlink.com 1.10,2013-02-12 06:08:00,
2013-02-12 01:24:00,62.4,59.0,29.75,West,264,4.0,14.0,87,0.00,,,0.00,weatherlink.com 1.10,2013-02-12 06:24:00,
2013-02-12 01:39:00,62.5,58.0,29.75,WNW,290,7.0,19.0,86,0.00,,,0.00,weatherlink.com 1.10,2013-02-12 06:39:00,
2013-02-12 01:54:00,62.4,58.0,29.75,WNW,302,4.0,13.0,86,0.00,,,0.00,weatherlink.com 1.10,2013-02-12 06:54:00,
2013-02-12 02:09:00,62.3,58.0,29.76,NW,316,6.0,15.0,87,0.00,,,0.00,weatherlink.com 1.10,2013-02-12 07:09:00,
2013-02-12 02:25:00,62.2,58.0,29.76,WNW,301,9.0,14.0,87,0.00,,,0.00,weatherlink.com 1.10,2013-02-12 07:25:00,
2013-02-12 02:39:00,62.1,58.0,29.77,NW,318,8.0,15.0,87,0.00,,,0.00,weatherlink.com 1.10,2013-02-12 07:39:00,
2013-02-12 02:55:00,62.0,58.0,29.76,NW,310,3.0,16.0,85,0.00,,,0.00,weatherlink.com 1.10,2013-02-12 07:55:00,
2013-02-12 03:11:00,61.8,57.0,29.76,WSW,246,8.0,15.0,85,0.00,,,0.00,weatherlink.com 1.10,2013-02-12 08:11:00,
2013-02-12 03:26:00,61.6,57.0,29.77,WNW,293,6.0,15.0,85,0.00,,,0.00,weatherlink.com 1.10,2013-02-12 08:26:00,
2013-02-12 03:42:00,61.3,57.0,29.76,WSW,246,8.0,14.0,85,0.00,,,0.00,weatherlink.com 1.10,2013-02-12 08:42:00,
2013-02-12 03:57:00,61.0,57.0,29.76,WNW,284,7.0,13.0,85,0.00,,,0.00,weatherlink.com 1.10,2013-02-12 08:57:00,
2013-02-12 04:11:00,60.9,56.0,29.76,WSW,240,5.0,14.0,84,0.00,,,0.00,weatherlink.com 1.10,2013-02-12 09:11:00,
2013-02-12 04:26:00,60.6,56.0,29.76,WNW,295,4.0,11.0,85,0.00,,,0.00,weatherlink.com 1.10,2013-02-12 09:26:00,
2013-02-12 04:43:00,60.3,56.0,29.77,NW,305,3.0,7.0,85,0.00,,,0.00,weatherlink.com 1.10,2013-02-12 09:43:00,
2013-02-12 04:57:00,-999.0,-99.9,29.78,North,-999,-999.0,-999.0,-999,0.00,,,0.00,weatherlink.com 1.10,2013-02-12 09:57:00,
2013-02-12 05:12:00,-999.0,-99.9,29.77,North,-999,-999.0,-999.0,-999,0.00,,,0.00,weatherlink.com 1.10,2013-02-12 10:12:00,
2013-02-12 05:28:00,-999.0,-99.9,29.77,North,-999,-999.0,-999.0,-999,0.00,,,0.00,weatherlink.com 1.10,2013-02-12 10:28:00,
2013-02-12 05:43:00,-999.0,-99.9,29.77,North,-999,-999.0,-999.0,-999,0.00,,,0.00,weatherlink.com 1.10,2013-02-12 10:43:00,
2013-02-12 05:59:00,-999.0,-99.9,29.78,North,-999,-999.0,-999.0,-999,0.00,,,0.00,weatherlink.com 1.10,2013-02-12 10:59:00,
2013-02-12 06:14:00,-999.0,-99.9,29.79,North,-999,-999.0,-999.0,-999,0.00,,,0.00,weatherlink.com 1.10,2013-02-12 11:14:00,
2013-02-12 06:29:00,-999.0,-99.9,29.80,North,-999,-999.0,-999.0,-999,0.00,,,0.00,weatherlink.com 1.10,2013-02-12 11:29:00,
2013-02-12 06:45:00,-999.0,-99.9,29.81,North,-999,-999.0,-999.0,-999,0.00,,,0.00,weatherlink.com 1.10,2013-02-12 11:45:00,
2013-02-12 06:59:00,-999.0,-99.9,29.80,North,-999,-999.0,-999.0,-999,0.00,,,0.00,weatherlink.com 1.10,2013-02-12 11:59:00,
2013-02-12 07:14:00,-999.0,-99.9,29.81,North,-999,-999.0,-999.0,-999,0.00,,,0.00,weatherlink.com 1.10,2013-02-12 12:14:00,
2013-02-12 07:30:00,-999.0,-99.9,29.83,North,-999,-999.0,-999.0,-999,0.00,,,0.00,weatherlink.com 1.10,2013-02-12 12:30:00,
2013-02-12 07:46:00,56.6,54.0,29.84,NW,313,4.0,10.0,90,0.00,,,0.00,weatherlink.com 1.10,2013-02-12 12:46:00,
2013-02-12 08:02:00,56.8,54.0,29.84,NW,313,4.0,9.0,90,0.00,,,0.00,weatherlink.com 1.10,2013-02-12 13:02:00,
2013-02-12 08:17:00,56.8,54.0,29.84,WNW,290,2.0,8.0,89,0.00,,,0.00,weatherlink.com 1.10,2013-02-12 13:17:00,
2013-02-12 08:31:00,56.9,53.0,29.85,NW,316,5.0,11.0,88,0.00,,,0.00,weatherlink.com 1.10,2013-02-12 13:31:00,
2013-02-12 08:46:00,56.8,53.0,29.85,NNW,329,7.0,8.0,86,0.00,,,0.00,weatherlink.com 1.10,2013-02-12 13:46:00,
2013-02-12 09:02:00,57.5,53.0,29.85,NNW,340,6.0,15.0,84,0.00,,,0.00,weatherlink.com 1.10,2013-02-12 14:02:00,
2013-02-12 09:16:00,57.6,50.0,29.85,WNW,294,6.0,11.0,77,0.00,,,0.00,weatherlink.com 1.10,2013-02-12 14:16:00,
2013-02-12 09:32:00,57.6,47.0,29.85,NE,39,11.0,13.0,68,0.00,,,0.00,weatherlink.com 1.10,2013-02-12 14:32:00,
2013-02-12 09:47:00,57.9,47.0,29.85,NE,45,3.0,10.0,66,0.00,,,0.00,weatherlink.com 1.10,2013-02-12 14:47:00,
2013-02-12 10:03:00,57.7,44.0,29.86,NW,326,7.0,10.0,60,0.00,,,0.00,weatherlink.com 1.10,2013-02-12 15:03:00,
2013-02-12 10:17:00,57.8,44.0,29.86,NNW,344,4.0,7.0,61,0.00,,,0.00,weatherlink.com 1.10,2013-02-12 15:17:00,
2013-02-12 10:33:00,57.8,44.0,29.87,NW,316,5.0,9.0,61,0.00,,,0.00,weatherlink.com 1.10,2013-02-12 15:33:00,
2013-02-12 10:48:00,58.2,43.0,29.87,WNW,297,7.0,11.0,57,0.00,,,0.00,weatherlink.com 1.10,2013-02-12 15:48:00,
2013-02-12 11:03:00,58.4,43.0,29.86,NNW,327,5.0,10.0,56,0.00,,,0.00,weatherlink.com 1.10,2013-02-12 16:03:00,
2013-02-12 11:19:00,-999.0,-99.9,29.86,North,-999,-999.0,-999.0,-999,0.00,,,0.00,weatherlink.com 1.10,2013-02-12 16:19:00,
2013-02-12 11:34:00,-999.0,-99.9,29.87,North,-999,-999.0,-999.0,-999,0.00,,,0.00,weatherlink.com 1.10,2013-02-12 16:34:00,
2013-02-12 11:50:00,-999.0,-99.9,29.87,North,-999,-999.0,-999.0,-999,0.00,,,0.00,weatherlink.com 1.10,2013-02-12 16:50:00,
2013-02-12 12:04:00,-999.0,-99.9,29.87,North,-999,-999.0,-999.0,-999,0.00,,,0.00,weatherlink.com 1.10,2013-02-12 17:04:00,
2013-02-12 12:19:00,-999.0,-99.9,29.86,North,-999,-999.0,-999.0,-999,0.00,,,0.00,weatherlink.com 1.10,2013-02-12 17:19:00,
2013-02-12 12:36:00,-999.0,-99.9,29.85,North,-999,-999.0,-999.0,-999,0.00,,,0.00,weatherlink.com 1.10,2013-02-12 17:36:00,
2013-02-12 12:52:00,-999.0,-99.9,29.84,North,-999,-999.0,-999.0,-999,0.00,,,0.00,weatherlink.com 1.10,2013-02-12 17:52:00,
2013-02-12 13:07:00,-999.0,-99.9,29.82,North,-999,-999.0,-999.0,-999,0.00,,,0.00,weatherlink.com 1.10,2013-02-12 18:07:00,
2013-02-12 13:21:00,-999.0,-99.9,29.80,North,-999,-999.0,-999.0,-999,0.00,,,0.00,weatherlink.com 1.10,2013-02-12 18:21:00,
2013-02-12 13:37:00,-999.0,-99.9,29.82,North,-999,-999.0,-999.0,-999,0.00,,,0.00,weatherlink.com 1.10,2013-02-12 18:37:00,
2013-02-12 13:52:00,-999.0,-99.9,29.83,North,-999,-999.0,-999.0,-999,0.00,,,0.00,weatherlink.com 1.10,2013-02-12 18:52:00,
2013-02-12 14:06:00,-999.0,-99.9,29.82,North,-999,-999.0,-999.0,-999,0.00,,,0.00,weatherlink.com 1.10,2013-02-12 19:06:00,
2013-02-12 14:37:00,-999.0,-99.9,29.78,North,-999,-999.0,-999.0,-999,0.00,,,0.00,weatherlink.com 1.10,2013-02-12 19:37:00,
2013-02-12 14:52:00,-999.0,-99.9,29.76,North,-999,-999.0,-999.0,-999,0.00,,,0.00,weatherlink.com 1.10,2013-02-12 19:52:00,
2013-02-12 15:07:00,-999.0,-99.9,29.76,North,-999,-999.0,-999.0,-999,0.00,,,0.00,weatherlink.com 1.10,2013-02-12 20:07:00,
2013-02-12 15:22:00,-999.0,-99.9,29.77,North,-999,-999.0,-999.0,-999,0.00,,,0.00,weatherlink.com 1.10,2013-02-12 20:22:00,
2013-02-12 15:38:00,-999.0,-99.9,29.77,North,-999,-999.0,-999.0,-999,0.00,,,0.00,weatherlink.com 1.10,2013-02-12 20:38:00,
2013-02-12 15:53:00,-999.0,-99.9,29.78,North,-999,-999.0,-999.0,-999,0.00,,,0.00,weatherlink.com 1.10,2013-02-12 20:53:00,
2013-02-12 16:08:00,-999.0,-99.9,29.78,North,-999,-999.0,-999.0,-999,0.00,,,0.00,weatherlink.com 1.10,2013-02-12 21:08:00,
2013-02-12 16:23:00,-999.0,-99.9,29.79,North,-999,-999.0,-999.0,-999,0.00,,,0.00,weatherlink.com 1.10,2013-02-12 21:23:00,
2013-02-12 16:38:00,-999.0,-99.9,29.78,North,-999,-999.0,-999.0,-999,0.00,,,0.00,weatherlink.com 1.10,2013-02-12 21:38:00,
2013-02-12 16:53:00,59.4,43.0,29.79,SW,214,2.0,7.0,56,0.00,,,0.00,weatherlink.com 1.10,2013-02-12 21:53:00,
2013-02-12 17:08:00,58.7,44.0,29.77,SSW,207,5.0,5.0,58,0.00,,,0.00,weatherlink.com 1.10,2013-02-12 22:08:00,
2013-02-12 17:23:00,57.5,44.0,29.78,South,176,2.0,5.0,61,0.00,,,0.00,weatherlink.com 1.10,2013-02-12 22:23:00,
2013-02-12 17:38:00,56.7,44.0,29.76,SSW,204,4.0,6.0,63,0.00,,,0.00,weatherlink.com 1.10,2013-02-12 22:38:00,
2013-02-12 17:53:00,56.6,45.0,29.79,WSW,240,7.0,7.0,66,0.00,,,0.00,weatherlink.com 1.10,2013-02-12 22:53:00,
2013-02-12 18:08:00,55.9,46.0,29.79,West,267,2.0,4.0,69,0.00,,,0.00,weatherlink.com 1.10,2013-02-12 23:08:00,
2013-02-12 18:23:00,55.3,46.0,29.81,SW,215,1.0,5.0,71,0.00,,,0.00,weatherlink.com 1.10,2013-02-12 23:23:00,
2013-02-12 18:38:00,54.8,46.0,29.82,WSW,243,4.0,4.0,72,0.00,,,0.00,weatherlink.com 1.10,2013-02-12 23:38:00,
2013-02-12 18:53:00,54.5,46.0,29.80,SSW,205,1.0,3.0,74,0.00,,,0.00,weatherlink.com 1.10,2013-02-12 23:53:00,
2013-02-12 19:09:00,54.2,46.0,29.80,West,263,0.0,2.0,75,0.00,,,0.00,weatherlink.com 1.10,2013-02-13 00:09:00,
2013-02-12 19:23:00,53.8,46.0,29.79,SW,233,0.0,2.0,76,0.00,,,0.00,weatherlink.com 1.10,2013-02-13 00:23:00,
2013-02-12 19:39:00,53.5,47.0,29.79,SW,218,2.0,3.0,78,0.00,,,0.00,weatherlink.com 1.10,2013-02-13 00:39:00,
2013-02-12 19:53:00,53.4,47.0,29.79,SSW,212,2.0,3.0,79,0.00,,,0.00,weatherlink.com 1.10,2013-02-13 00:53:00,
2013-02-12 20:08:00,53.3,47.0,29.78,West,259,2.0,3.0,79,0.00,,,0.00,weatherlink.com 1.10,2013-02-13 01:08:00,
2013-02-12 20:23:00,53.2,47.0,29.79,West,261,1.0,3.0,80,0.00,,,0.00,weatherlink.com 1.10,2013-02-13 01:23:00,
2013-02-12 20:38:00,53.1,47.0,29.78,SSW,212,2.0,2.0,81,0.00,,,0.00,weatherlink.com 1.10,2013-02-13 01:38:00,
2013-02-12 20:53:00,53.3,47.0,29.76,SSW,208,1.0,3.0,80,0.00,,,0.00,weatherlink.com 1.10,2013-02-13 01:53:00,
2013-02-12 21:08:00,53.4,47.0,29.76,SW,235,1.0,3.0,80,0.00,,,0.00,weatherlink.com 1.10,2013-02-13 02:08:00,
2013-02-12 21:23:00,53.2,47.0,29.75,SSW,193,2.0,5.0,80,0.00,,,0.00,weatherlink.com 1.10,2013-02-13 02:23:00,
2013-02-12 21:38:00,53.3,47.0,29.77,SW,217,3.0,5.0,80,0.00,,,0.00,weatherlink.com 1.10,2013-02-13 02:38:00,
2013-02-12 21:53:00,53.5,47.0,29.77,SW,219,3.0,4.0,79,0.00,,,0.00,weatherlink.com 1.10,2013-02-13 02:53:00,
2013-02-12 22:09:00,53.9,47.0,29.77,WSW,250,0.0,3.0,78,0.00,,,0.00,weatherlink.com 1.10,2013-02-13 03:09:00,
2013-02-12 22:23:00,54.6,48.0,29.79,West,276,2.0,3.0,79,0.00,,,0.00,weatherlink.com 1.10,2013-02-13 03:23:00,
2013-02-12 22:38:00,53.5,49.0,29.79,West,263,0.0,3.0,83,0.00,,,0.00,weatherlink.com 1.10,2013-02-13 03:38:00,
2013-02-12 22:54:00,52.7,48.0,29.79,NNW,330,1.0,-999.0,85,-99.99,,,0.00,weatherlink.com 1.10,2013-02-13 03:54:00,
2013-02-12 23:09:00,51.9,49.0,29.78,NE,34,2.0,2.0,89,0.01,,,0.01,weatherlink.com 1.10,2013-02-13 04:09:00,
2013-02-12 23:24:00,-999.0,-99.9,29.80,North,-999,-999.0,-999.0,-999,0.02,,,0.02,weatherlink.com 1.10,2013-02-13 04:24:00,
2013-02-12 23:39:00,-999.0,-99.9,29.82,North,-999,-999.0,-999.0,-999,0.02,,,0.02,weatherlink.com 1.10,2013-02-13 04:39:00,
2013-02-12 23:54:00,-999.0,-99.9,29.82,North,-999,-999.0,-999.0,-999,0.02,,,0.02,weatherlink.com 1.10,2013-02-13 04:54:00,